Location: Azul
(36.7830°S, 59.8500°W)
Time: 23:47:07
(UTC-03:00)

CUBEBUG 2 - Pass Details

Date: 30 October 2021
Orbit: 584 x 697 km, 97.7° (Epoch: 30 November)

Event Time Altitude Azimuth Distance (km) Brightness Sun altitude
Exits shadow 04:17:14 37° 277° (W) 966 ? -18.6°
Drops below altitude 10° 04:21:18 10° 209° (SSW) 2,025 ? -17.9°
Sets 04:23:41 0° 201° (SSW) 2,961 ? -17.5°
